カタログに戻る

STARLINK-32827

運用中通信VLEO
NORAD 63043·PAYLOAD·🇺🇸 United States

打ち上げ Feb 18, 2025 から Cape Canaveral Space Force Station

Loading…

次のパス (今後24時間)

TLE

最新Source: CelesTrak SupGP

元期: Sep 15, 2026, 03:19 UTC

1 63043C 25034Q   26258.13868056  .00011217  00000+0  33140-3 0  2583
2 63043  53.1574 107.1229 0001258  85.2166   4.0558 15.34385485    18

AllMySatでSTARLINK-32827をリアルタイム追跡

Download on the App Store